YA38 LXA-VNKT

Flight info

Callsign YA38
Flight time N/A
Altitude 38000
Route LXA VNKT
Aircraft A319/M-V/N

Departure

Time N/A
Airport LXA

Arrival

Time 2026-04-28 12:44
Airport Tribhuvan International Airport (VNKT)
Time Latitude Longitude Altitude Speed Heading
2026-04-28 12:42 27.64123 85.33415 5192 ft 181 kts 21°
2026-04-28 12:42 27.65408 85.34075 5076 ft 214 kts 22°
2026-04-28 12:42 27.66760 85.34624 4893 ft 193 kts 17°
2026-04-28 12:43 27.67954 85.35166 4599 ft 179 kts 20°
2026-04-28 12:43 27.69062 85.35654 4388 ft 160 kts 19°
2026-04-28 12:43 27.70004 85.36061 4396 ft 115 kts 29°
2026-04-28 12:43 27.70569 85.36322 4397 ft 71 kts 21°
2026-04-28 12:44 27.70843 85.36478 4385 ft 22 kts 58°
2026-04-28 12:44 27.70908 85.36498 4383 ft 8 kts 261°
2026-04-28 12:44 27.70847 85.36458 4386 ft 12 kts 204°
2026-04-28 12:44 27.70758 85.36416 4389 ft 15 kts 201°
2026-04-28 12:45 27.70630 85.36359 4394 ft 25 kts 202°
2026-04-28 12:45 27.70429 85.36262 4398 ft 37 kts 205°
2026-04-28 12:45 27.70248 85.36188 4400 ft 17 kts 199°
2026-04-28 12:45 27.70151 85.36133 4400 ft 5 kts 288°
2026-04-28 12:46 27.70190 85.36112 4401 ft 6 kts 315°
2026-04-28 12:46 27.70223 85.36077 4402 ft 7 kts 272°
2026-04-28 12:46 27.70174 85.36035 4401 ft 8 kts 206°
2026-04-28 12:46 27.70111 85.36007 4399 ft 7 kts 201°
2026-04-28 12:47 27.70060 85.35974 4397 ft 10 kts 222°
2026-04-28 12:47 27.70061 85.35895 4395 ft 5 kts 288°
2026-04-28 12:47 27.70069 85.35875 4395 ft 0 kts 291°
2026-04-28 12:47 27.70070 85.35870 4395 ft 0 kts 291°